Simultaneous Nadir Overpasses (SNOs) Predictions

Prediction of SNOs between METOP-B and TERRA Satellite Orbit:

Table of predicted SNOs for the next 14.0 days since TLE Epoch: 5/17/2025
Index Date (METOP-B) Time (METOP-B) Lat,Lon (METOP-B) SZA (METOP-B ) Date (TERRA) Time (TERRA) Lat,Lon (TERRA) SZA (TERRA ) Distance(km) Time Diff (sec)
1 05/17/2025 23:06:05 78.16,-163.91 58.56 05/17/2025 23:06:51 78.17,-163.80 58.58 2.79 46
2 05/17/2025 23:56:32 -78.73, 6.64 120.81 05/17/2025 23:55:59 -78.72, 6.57 120.83 1.83 33
3 05/20/2025 12:45:39 -78.30, 171.91 121.83 05/20/2025 12:45:56 -78.31, 172.03 121.82 3.12 17
4 05/20/2025 13:36:08 78.73, -18.30 58.64 05/20/2025 13:35:04 78.74, -18.18 58.65 2.64 64
5 05/23/2025 01:34:40 -78.09, -21.46 122.56 05/23/2025 01:35:48 -78.09, -21.48 122.56 0.58 68
6 05/23/2025 02:25:08 78.57, 148.46 57.95 05/23/2025 02:24:55 78.56, 148.42 57.95 1.02 13
7 05/25/2025 15:14:11 78.27, -45.45 57.16 05/25/2025 15:14:48 78.27, -45.48 57.17 0.60 37
8 05/25/2025 16:04:42 -78.66, 124.05 122.42 05/25/2025 16:03:59 -78.66, 124.10 122.42 1.32 43
9 05/28/2025 04:53:44 -78.40, -69.67 123.13 05/28/2025 04:53:51 -78.40, -69.69 123.13 0.45 7
10 05/28/2025 05:43:47 79.74, 106.82 58.48 05/28/2025 05:42:34 79.82, 106.30 58.52 13.35 73
11 05/30/2025 17:42:49 -78.01, 96.00 123.93 05/30/2025 17:43:45 -78.02, 96.07 123.92 1.72 56



Historial Predications of SNOs between METOP-B and TERRA
